Location: Unspecified
(51.0950°N, 12.9690°E)
Time: 07:43:27
(UTC+00:00)

ATLAS CENTAUR R/B - Visible Passes

Search period start: 07 October 2024 00:00
Search period end: 17 October 2024 00:00
Orbit: 194 x 1588 km, 57.1° (Epoch: 06 October)

Date Brightness Start Highest point End Pass type
(mag) Time Alt. Az. Time Alt. Az. Time Alt. Az.
07 Oct 3.6 03:13:50 13° E 03:13:50 13° E 03:14:10 10° E visible
08 Oct 3.8 03:12:19 12° ENE 03:12:19 12° ENE 03:12:30 10° ENE visible
10 Oct 2.2 04:47:46 10° NW 04:48:55 15° N 04:50:04 10° NNE visible
11 Oct 2.3 04:41:39 10° NW 04:42:43 14° N 04:43:48 10° NNE visible
12 Oct 2.4 04:34:03 10° NW 04:35:04 13° N 04:36:05 10° NNE visible
13 Oct 2.4 04:25:16 11° NNW 04:25:58 13° N 04:26:58 10° NNE visible
14 Oct 2.4 04:15:05 13° NNW 04:15:26 13° N 04:16:24 10° NNE visible
15 Oct 2.6 04:03:31 13° N 04:03:31 13° N 04:04:25 10° NE visible
16 Oct 2.9 03:50:33 12° NNE 03:50:33 12° NNE 03:50:59 10° NE visible
